map of UBA home
Great Circle Mapper logo
UBA - Airport
Location
City:  Uberaba, Minas Gerais, Brazil
Name:Mário de Almeida Franco Airport
ICAO / IATA:SBUR / UBA

Details
Type:Airport (Aerodrome, Airfield)
Use:Public/Civil
Latitude:19°45'54"S (-19.764999)
Longitude:47°57'53"W (-47.964777)
Datum:WGS 1984
Elevation:2655 ft (809 m)
Variation:21.07°W (WMM2015 magnetic declination)
-0.12° annual change
Runways:1
Longest:5771 × 148 ft (1759 × 45 m), paved

Time
Time Zone:UTC-3 (DST-2)
Local Time:

Weather
METAR:SBUR 082100Z 04005KT 9999 -TSRA SCT040 FEW045CB 23/19 Q1018
TAF:SBUR 081620Z 0818/0906 03008KT 9999 FEW040TX29/0818Z TN22/0906Z
TEMPO 0818/0824 27010KT 7000 TSRA SCT040 FEW045CB
BECMG 0900/0902 05005KT CAVOK
RMK PGN

Related Locations
Nearby:
Farthest:MMD: 12009 mi / 19326 km
Minamidaito [Minami Daito Airport], Minamidaito Jima, 47, JP

Find:

   beyond  
but within

Other Information
Maps:
NOTAMs:
Links:
Sources:

  
flag of Brazil
flag of Minas Gerais
  

Sectional Chart

Flight Planning
at skyvector.com

Satellite Image

Google Maps Satellite view

 

Copyright © 2004-2016 Karl L. Swartz. All rights reserved.
The Great Circle Mapper name and logo are trademarks of the Great Circle Mapper.
All other trademarks mentioned herein belong to their respective owners.
Please see credits for attibutions and further copyright information.

  Follow gcmap on Facebook Follow gcmap on Twitter Follow gcmap on Google+ GCmap on LinkedIn

hCard Microformat

Geo Microformat